SL-14 DEB, 45284

Orbit data source: Space-Track

SL-14 DEB, 45284 is space debris in LEO originally from a launch on Thu, 15 Aug 1991 UTC launched from the Plesetsk Missile And Space Complex (PKMTR). Debris objects in space refer to the collection of defunct objects orbiting the Earth. Examples of debris include non-operational satellites, rocket bodies, and fragments generated from explosions, collisions, or faulty payload assembly.

Loading next visibility...
Identifier
45284, 1991-056W
Orbit
LEO
Last TLE update
7 hours ago
Origin
Manufacturer
Unknown
Mission
Spacecraft
Bus & Motor
Unknown
Mass
Unknown
Launch date (UTC)
1991-08-15 (34 years ago)
Launch vehicle
Unknown
Launch site
Plesetsk Missile And Space Complex (PKMTR)
Object type
Payload
Rocket body
Debris
Shape & HBR
Unknown
Radar Cross Section
Small (<0.1 m²)

Expand to show TLE details & history

TLE from 7 hours ago
0 SL-14 DEB
1 45284U 91056W   25192.12480561  .00000549  00000-0  89802-3 0  9998
2 45284  82.5670 330.5113 0094816  50.5942 310.3543 13.44152804263307
Epoch: 2025-07-11T02:59Z
TLE epoch observation values (Epoch: 2025-07-11T02:59:43.204Z)
Latitude
0.00001°
Longitude
-3.69994°
Altitude
1,051.207 km
Speed
7.349 km/s
True Right ascension
22h 02m 02s
True Declination
0° 00' 00"
Sunlit
Object was in full shadow at epoch
Visualization orbit readout
Latitude
-42.75817°
Longitude
-10.80673°
Altitude
1,113.01 km
Speed
7.294 km/s
Apparent Right ascension
18h 08m 54s
Apparent Declination
-83° 12' 01"
Sunlit
Object is in full shadow
Visualization observer readout
Local Sidereal Time
22:13:31
Azimuth
187.402° SSW
Elevation
-36.394°
Doppler factor
1
Orbital elements
Apogee altitude
1,161.875 km
Perigee altitude
1,020.235 km
Semi-major axis
7,469.192 km
Eccentricity
0.00948
Inclination
82.567°
RAAN
330.5113°
Arg. of periapsis
50.5942°
True anomaly
Unknown
Mean anomaly
310.3543°
Eccentric anomaly
Unknown
Mean motion
3.36227 °/min
Orbital period
107.07 mins
BSTAR
0.00089802
Loading maneuver chart data...
Loading SW <> Apogee altitude chart data...
Loading historical data...
Loading historical data...
Loading historical data...
Loading historical data...
Loading historical data...
Loading historical data...
Loading historical data...

SL-14 DEB Visibility forecast

Observer location: undefined°, undefined°

Span
Click to sort rows by Start time (UTC) header in descending order
Start Az.
Max El. time (UTC)
Max El. Az.
Max El.
End time (UTC)
End Az.
12 mins2025-07-11 10:14:43.580Z194.224° SSW2025-07-11 10:20:43.580Z308.474° NW43.49°2025-07-11 10:26:43.580Z3.931° NNE
8 mins2025-07-11 19:40:43.580Z33.016° NE2025-07-11 19:43:43.580Z63.605° ENE18.624°2025-07-11 19:48:43.580Z112.011° ESE
11 mins2025-07-11 21:27:43.580Z344.402° N2025-07-11 21:32:43.580Z263.643° W42.839°2025-07-11 21:38:43.580Z186.294° SSW
11 mins2025-07-12 09:28:43.580Z163.901° S2025-07-12 09:33:43.580Z86.472° E39.357°2025-07-12 09:39:43.580Z16.762° NNE
|